This is the latest recevied weather packets stored in our database for station/object N8QQQ. If no packets are shown the sender has not sent any weather packets the latest 10 day(s).
| Time | Temp. | Humidity | Pressure | Rain* | Wind** | Luminosity | Snow |
|---|---|---|---|---|---|---|---|
| 1778122950 | -1.11° C | 82% | 1012.7 hPa | 0 mm | - | 0 W/m² | - |
| 1778122647 | -1.11° C | 81% | 1012.6 hPa | 0 mm | - | 0 W/m² | - |
| 1778122344 | -0.56° C | 79% | 1012.5 hPa | 0 mm | - | 0 W/m² | - |
| 1778122042 | 0° C | 78% | 1012.6 hPa | 0 mm | - | 0 W/m² | - |
| 1778121739 | 0° C | 76% | 1012.7 hPa | 0 mm | - | 0 W/m² | - |
| 1778121434 | 0.56° C | 74% | 1012.5 hPa | 0 mm | - | 0 W/m² | - |
| 1778121131 | 1.11° C | 75% | 1012.6 hPa | 0 mm | - | 0 W/m² | - |
| 1778120829 | 1.67° C | 71% | 1012.6 hPa | 0 mm | - | 0 W/m² | - |
| 1778120524 | 2.22° C | 66% | 1012.4 hPa | 0 mm | - | 0 W/m² | - |
| 1778120221 | 2.22° C | 64% | 1012.5 hPa | 0 mm | - | 0 W/m² | - |
| 1778119916 | 2.22° C | 63% | 1012.4 hPa | 0 mm | - | 0 W/m² | - |
| 1778119616 | 2.78° C | 63% | 1012.5 hPa | 0 mm | - | 0 W/m² | - |
| 1778119311 | 2.78° C | 63% | 1012.6 hPa | 0 mm | - | 0 W/m² | - |
| 1778119009 | 2.78° C | 62% | 1012.6 hPa | 0 mm | - | 0 W/m² | - |
| 1778118706 | 2.78° C | 62% | 1012.4 hPa | 0 mm | - | 0 W/m² | - |
| 1778118403 | 2.78° C | 62% | 1012.5 hPa | 0 mm | - | 0 W/m² | - |
| 1778118099 | 2.78° C | 62% | 1012.4 hPa | 0 mm | - | 0 W/m² | - |
| 1778117796 | 2.78° C | 61% | 1012.5 hPa | 0 mm | - | 0 W/m² | - |
| 1778117493 | 2.78° C | 62% | 1012.4 hPa | 0 mm | - | 0 W/m² | - |
| 1778117190 | 2.78° C | 61% | 1012.5 hPa | 0 mm | - | 0 W/m² | - |
| 1778116885 | 2.78° C | 61% | 1012.5 hPa | 0 mm | - | 0 W/m² | - |
| 1778116584 | 2.78° C | 61% | 1012.3 hPa | 0 mm | - | 0 W/m² | - |
| 1778116280 | 2.78° C | 61% | 1012 hPa | 0 mm | - | 0 W/m² | - |
| 1778115975 | 2.78° C | 59% | 1012.3 hPa | 0 mm | - | 1 W/m² | - |
| 1778115671 | 3.33° C | 60% | 1012.4 hPa | 0 mm | - | 1 W/m² | - |
* Rain latest hour (hover to see other rain measurements)
** Current wind speed in m/s (hover to see current wind gust speed)